This is the latest recevied weather packets stored in our database for station/object IK6ZNK-3. If no packets are shown the sender has not sent any weather packets the latest 10 day(s).
| Time | Temp. | Humidity | Pressure | Rain* | Wind** | Luminosity | Snow |
|---|---|---|---|---|---|---|---|
| 1778045406 | 17.22° C | 72% | 1004.8 hPa | 0 mm | - | - | - |
| 1778044807 | 16.11° C | 71% | 1004.7 hPa | 0 mm | - | - | - |
| 1778044207 | 15.56° C | 75% | 1004.8 hPa | 0 mm | - | - | - |
| 1778043607 | 15° C | 75% | 1004.8 hPa | 0 mm | - | - | - |
| 1778043006 | 15° C | 76% | 1004.7 hPa | 0 mm | - | - | - |
| 1778042406 | 14.44° C | 77% | 1004.7 hPa | 0 mm | - | - | - |
| 1778041806 | 14.44° C | 77% | 1004.2 hPa | 0 mm | - | - | - |
| 1778041206 | 14.44° C | 77% | 1004.6 hPa | 0 mm | - | - | - |
| 1778040607 | 15.56° C | 75% | 1004.4 hPa | 0 mm | - | - | - |
| 1778040007 | 15° C | 71% | 1004.4 hPa | 0 mm | - | - | - |
| 1778039407 | 14.44° C | 75% | 1004.3 hPa | 0 mm | - | - | - |
| 1778038806 | 15.56° C | 73% | 1004.2 hPa | 0 mm | - | - | - |
| 1778038207 | 15.56° C | 70% | 1004.1 hPa | 0 mm | - | - | - |
| 1778037606 | 15.56° C | 70% | 1004.2 hPa | 0 mm | - | - | - |
| 1778037006 | 16.11° C | 68% | 1004.6 hPa | 0 mm | - | - | - |
| 1778036407 | 16.11° C | 68% | 1004.4 hPa | 0 mm | - | - | - |
| 1778035807 | 16.11° C | 68% | 1004.5 hPa | 0 mm | - | - | - |
| 1778035207 | 16.11° C | 68% | 1004.6 hPa | 0 mm | - | - | - |
| 1778034607 | 16.11° C | 71% | 1004.5 hPa | 0 mm | - | - | - |
| 1778034007 | 15.56° C | 72% | 1004.9 hPa | 0 mm | - | - | - |
| 1778033406 | 15° C | 73% | 1005.1 hPa | 0 mm | - | - | - |
| 1778032807 | 15.56° C | 73% | 1005 hPa | 0 mm | - | - | - |
| 1778032206 | 16.11° C | 71% | 1005 hPa | 0 mm | - | - | - |
| 1778031607 | 16.11° C | 71% | 1005 hPa | 0 mm | - | - | - |
| 1778031007 | 16.11° C | 70% | 1005 hPa | 0 mm | - | - | - |
* Rain latest hour (hover to see other rain measurements)
** Current wind speed in m/s (hover to see current wind gust speed)